Iridium
NORAD ID: 25287
Int'l Code: 1998-021C
Perigee: 783.1 km
Apogee: 786.5 km
Inclination: 86.4 °
Period: 100.4 minutes
Semi major axis: 7155 km
Launch date: April 7, 1998
Source: United States (US)
Two Line Element Set (TLE):
1 25287U 98021C 13144.48250414 .00000220 00000-0 71386-4 0 2609
2 25287 086.3965 124.5589 0002411 094.0726 266.0746 14.34220595792197
Source: AFSPC
NASA's NSSDC Master Catalog entry for IRIDIUM 64